Temp
12 12 13 13 13 13 13 13 14 14 15 15 15 15 15 15 15 15 15 15 15 16 16 15 15 15 15 14 15 17 16 16 16 16 16 16 17 19 20 20 18 20 17 15 14 14 16
12 12 11 12 12 13 13 13 13 14 14 14 15 15 15 15 15 15 15 15 15 15 15 15 15 15 14 15 16 16 16 16 16 16 15 16 17 18 19 19 18 17 16 15 14 14 13
11 11 12 12 12 12 12 13 13 13 14 14 14 14 14 15 15 15 15 15 16 16 16 16 15 14 14 15 15 15 15 16 15 15 14 16 15 16 17 17 15 15 16 15 14 14 14
11 11 11 11 12 12 12 12 12 13 13 13 13 14 14 14 15 15 15 15 16 16 16 16 15 14 14 15 15 14 14 14 14 15 15 15 15 15 17 15 16 17 17 18 18 15 14
10 10 10 10 11 11 11 11 11 12 12 13 13 13 14 14 14 15 15 16 16 16 15 14 14 14 15 14 14 14 14 13 14 14 14 14 14 16 15 17 18 18 19 19 17 15 14
9 9 9 9 10 10 11 11 11 11 11 12 12 12 13 13 14 14 15 15 16 16 15 14 13 12 14 14 14 14 14 13 12 13 13 14 15 17 17 18 18 21 19 20 19 16 15
9 9 10 10 9 10 11 11 11 10 10 10 11 11 11 12 13 14 14 15 15 14 13 15 16 16 14 14 14 14 14 13 12 14 16 15 16 17 19 19 20 21 20 20 21 18 15
9 9 9 10 9 10 10 10 10 10 9 9 10 10 10 11 12 13 13 13 12 11 12 14 14 12 12 11 13 12 13 13 14 15 17 15 15 19 19 17 19 18 18 19 20 16 15
10 10 10 10 10 10 9 10 9 8 8 8 8 9 10 10 11 12 12 11 11 10 11 14 11 11 11 11 13 14 12 13 14 15 17 16 19 15 17 17 16 17 18 18 19 15 14
10 10 9 9 10 10 10 10 10 9 8 8 8 8 9 10 11 11 10 10 11 9 13 17 12 11 10 11 12 10 11 13 14 14 16 16 17 16 15 15 17 16 19 17 17 14 15
9 9 9 9 9 9 9 9 8 8 8 8 8 8 8 8 8 9 10 10 10 9 13 15 12 10 10 12 11 10 10 11 14 15 14 16 15 13 14 16 17 16 14 16 16 16 15
7 8 8 8 8 8 8 8 8 8 7 7 7 8 8 8 9 8 9 10 10 13 12 15 12 12 12 12 12 10 11 10 11 13 14 14 13 13 15 14 14 14 14 14 14 15 13
6 6 6 7 7 7 8 8 8 8 7 7 7 7 7 8 8 8 9 10 12 12 16 16 14 12 13 14 13 12 12 12 13 11 14 15 14 14 12 13 12 13 14 14 13 12 13
4 4 5 5 5 5 6 6 7 7 7 7 7 6 6 7 8 8 8 10 9 14 15 14 12 12 13 15 14 13 13 13 14 15 14 14 14 14 12 14 14 12 15 15 15 16 17
3 3 3 4 4 4 4 4 5 6 6 6 6 6 6 7 7 7 8 7 10 13 13 13 14 13 15 14 12 13 13 14 16 14 14 16 16 13 12 14 14 13 12 16 14 16 14
3 3 3 3 3 3 4 4 4 4 5 5 5 4 5 6 7 6 7 8 10 11 11 11 11 13 12 13 12 12 14 16 14 15 15 15 15 13 11 10 11 12 14 12 13 13 14
2 3 3 3 3 3 3 3 3 3 4 4 4 5 5 5 5 4 6 8 10 10 10 10 11 11 11 10 11 11 12 14 14 12 13 14 14 12 9 9 13 10 11 12 14 15 15
1 2 2 3 3 3 3 3 3 3 3 3 3 6 4 4 4 3 5 7 5 7 8 9 8 8 9 9 9 10 10 12 10 9 11 12 11 12 14 13 10 14 14 14 14 15 14
1 1 1 2 2 2 3 3 3 3 2 3 3 5 3 3 6 5 7 7 7 8 9 9 7 6 6 5 5 8 9 10 9 9 9 11 10 10 13 11 8 10 12 13 15 15 13
0 1 1 1 2 2 2 2 3 3 2 2 2 5 2 1 2 5 7 8 6 4 5 6 5 5 5 4 5 5 7 9 5 6 4 6 7 9 11 14 10 10 11 11 12 12 13
0 0 1 1 2 2 2 2 2 2 2 1 2 5 6 3 2 3 4 3 4 4 4 5 4 5 6 5 6 6 7 7 6 5 3 3 5 7 8 9 9 8 9 10 10 11 12
-0 -0 0 0 1 1 2 2 2 2 2 1 2 4 5 5 6 4 3 2 3 5 5 4 3 5 6 4 5 4 5 5 4 5 6 1 4 5 5 7 9 8 8 8 9 10 10
-0 -0 -0 -0 0 1 1 1 2 2 1 1 2 2 2 4 5 4 3 4 6 6 5 5 6 5 3 4 3 2 1 2 2 3 3 2 2 5 6 8 7 5 5 6 7 8 8
-1 -1 -0 -0 -0 0 1 1 1 1 1 1 1 2 2 3 4 5 6 6 6 6 4 4 4 2 2 1 0 -0 -1 -1 -0 0 2 3 3 4 5 5 5 9 3 3 5 7 7
-1 -1 -1 -1 -0 0 1 1 1 1 1 0 1 1 1 2 3 2 3 4 3 2 2 3 3 2 1 -1 1 3 5 2 2 0 1 1 2 4 4 6 7 7 2 3 4 5 -1
-1 -1 -1 -1 -0 0 0 1 1 1 1 0 1 1 1 1 3 3 4 4 4 4 3 1 0 -1 -1 0 2 3 5 6 6 3 -1 -1 -1 1 4 5 6 2 -0 -1 -1 3 -3
-1 -1 -1 -1 -0 0 0 1 1 1 1 -0 0 1 1 1 1 2 2 2 1 1 1 1 -1 -2 -3 1 2 4 5 3 4 3 2 1 0 1 2 4 4 -3 -4 -5 3 -1 -6
-1 -1 -0 -0 -0 0 1 1 1 1 0 -0 -0 0 0 -0 -0 0 1 0 -0 -0 1 0 0 -2 -1 1 2 4 4 4 2 2 1 1 2 2 2 3 3 -6 -4 -2 -6 -6 -6
-1 -1 -0 -0 -0 0 0 1 1 0 0 -0 -1 -0 -0 -0 -1 -1 -0 -1 -0 -0 -1 -1 -0 -1 -0 1 2 1 2 3 3 3 -0 1 -1 -1 -1 -2 -5 -7 -7 -8 -7 -5 -5
Height
1568 1567 1566 1564 1563 1562 1560 1558 1556 1554 1551 1549 1547 1544 1543 1541 1539 1537 1536 1534 1532 1530 1527 1524 1523 1521 1519 1520 1517 1513 1513 1512 1512 1512 1513 1514 1514 1512 1509 1507 1509 1505 1509 1511 1512 1513 1513
1571 1569 1567 1565 1563 1561 1559 1557 1555 1553 1551 1549 1546 1544 1541 1539 1536 1534 1533 1532 1530 1529 1526 1523 1522 1520 1520 1520 1513 1512 1512 1511 1511 1511 1512 1513 1513 1512 1509 1508 1508 1508 1510 1512 1512 1513 1515
1571 1570 1569 1567 1565 1562 1560 1558 1555 1552 1550 1548 1546 1543 1540 1537 1535 1533 1530 1528 1527 1526 1525 1523 1521 1519 1517 1516 1512 1511 1511 1509 1510 1511 1511 1510 1511 1512 1510 1510 1510 1509 1510 1511 1511 1511 1512
1572 1570 1568 1567 1565 1563 1561 1558 1555 1552 1550 1548 1545 1542 1539 1537 1535 1532 1529 1526 1524 1522 1520 1520 1519 1518 1516 1510 1510 1510 1510 1509 1509 1509 1509 1507 1509 1511 1510 1511 1510 1507 1506 1501 1498 1508 1510
1571 1570 1568 1566 1564 1562 1560 1558 1555 1552 1549 1546 1543 1541 1538 1535 1532 1530 1527 1524 1521 1518 1516 1517 1517 1516 1514 1509 1507 1507 1508 1510 1508 1508 1508 1508 1508 1509 1512 1507 1504 1501 1494 1494 1500 1503 1507
1569 1568 1566 1565 1563 1561 1559 1556 1554 1552 1549 1546 1543 1540 1537 1533 1530 1527 1523 1520 1517 1514 1513 1513 1514 1517 1508 1507 1505 1505 1507 1508 1510 1509 1509 1510 1509 1504 1504 1501 1497 1486 1492 1486 1487 1495 1499
1569 1567 1565 1562 1561 1558 1557 1555 1553 1550 1548 1545 1542 1539 1536 1533 1529 1525 1522 1519 1520 1516 1512 1509 1508 1505 1505 1502 1502 1501 1503 1507 1509 1510 1506 1506 1505 1495 1488 1490 1485 1480 1480 1479 1475 1486 1495
1567 1565 1563 1562 1559 1557 1555 1552 1550 1548 1545 1543 1540 1537 1535 1532 1528 1526 1523 1522 1522 1522 1511 1501 1498 1498 1499 1500 1502 1501 1502 1505 1507 1504 1501 1505 1498 1488 1485 1487 1485 1487 1487 1482 1477 1488 1494
1566 1564 1562 1559 1557 1555 1552 1550 1548 1545 1543 1540 1538 1535 1534 1531 1528 1527 1524 1523 1521 1518 1514 1498 1495 1495 1497 1499 1499 1499 1501 1500 1500 1499 1497 1496 1482 1488 1487 1488 1489 1486 1483 1480 1479 1488 1491
1562 1560 1558 1556 1555 1553 1551 1548 1546 1543 1542 1540 1537 1534 1532 1531 1530 1526 1525 1523 1520 1517 1509 1491 1496 1496 1495 1495 1496 1495 1497 1501 1497 1494 1494 1490 1482 1485 1489 1486 1484 1482 1475 1479 1480 1491 1484
1559 1557 1554 1552 1550 1548 1546 1545 1543 1541 1539 1538 1536 1534 1533 1531 1531 1529 1527 1523 1520 1519 1516 1491 1493 1494 1494 1496 1495 1493 1493 1496 1493 1489 1494 1485 1483 1487 1487 1479 1478 1478 1482 1480 1481 1481 1481
1555 1553 1550 1548 1546 1544 1543 1540 1539 1538 1536 1535 1533 1532 1531 1531 1531 1529 1527 1524 1522 1518 1511 1485 1489 1490 1492 1492 1492 1493 1494 1494 1493 1492 1487 1479 1486 1486 1478 1480 1481 1484 1484 1485 1485 1482 1480
1549 1548 1546 1545 1543 1541 1538 1537 1535 1533 1532 1531 1530 1529 1527 1528 1527 1526 1526 1526 1524 1514 1486 1482 1486 1491 1490 1484 1487 1488 1488 1488 1482 1493 1480 1471 1472 1476 1481 1480 1484 1483 1481 1483 1484 1486 1465
1547 1544 1542 1541 1538 1537 1535 1533 1532 1531 1528 1525 1525 1525 1524 1523 1523 1523 1525 1528 1526 1496 1491 1489 1492 1490 1488 1480 1481 1481 1479 1478 1473 1473 1474 1471 1468 1464 1467 1464 1466 1474 1469 1467 1467 1456 1439
1544 1542 1540 1538 1535 1533 1532 1530 1528 1526 1524 1521 1520 1520 1520 1519 1519 1521 1523 1524 1503 1493 1493 1492 1489 1487 1480 1480 1485 1481 1477 1467 1459 1466 1469 1455 1452 1457 1461 1459 1463 1465 1468 1457 1461 1449 1454
1540 1538 1537 1536 1533 1531 1529 1527 1526 1523 1521 1519 1516 1516 1515 1516 1517 1519 1519 1506 1496 1496 1496 1495 1494 1487 1487 1483 1485 1481 1469 1458 1462 1458 1459 1452 1449 1453 1463 1468 1464 1459 1458 1466 1464 1461 1445
1534 1532 1532 1531 1530 1528 1526 1524 1522 1520 1517 1517 1516 1515 1511 1511 1513 1516 1510 1501 1497 1497 1498 1495 1487 1484 1486 1490 1485 1483 1472 1464 1463 1464 1463 1457 1452 1454 1466 1460 1447 1460 1457 1456 1447 1433 1429
1529 1527 1526 1526 1526 1524 1521 1520 1518 1517 1516 1514 1515 1512 1509 1508 1513 1511 1505 1501 1500 1498 1498 1496 1494 1492 1489 1485 1479 1480 1472 1473 1471 1472 1467 1462 1455 1444 1433 1437 1444 1436 1434 1438 1438 1428 1427
1524 1523 1522 1521 1521 1520 1519 1517 1516 1515 1514 1514 1511 1509 1508 1512 1504 1503 1499 1497 1496 1494 1494 1492 1494 1492 1493 1492 1487 1476 1473 1470 1469 1471 1469 1462 1456 1446 1429 1437 1444 1438 1430 1430 1423 1424 1415
1519 1518 1518 1517 1516 1517 1517 1516 1515 1513 1513 1513 1512 1501 1504 1505 1503 1501 1496 1490 1490 1493 1492 1493 1492 1493 1490 1488 1488 1478 1471 1468 1470 1472 1473 1473 1462 1442 1422 1412 1429 1427 1423 1424 1425 1422 1390
1514 1513 1512 1512 1512 1512 1512 1512 1512 1512 1511 1511 1509 1502 1498 1497 1499 1500 1499 1497 1494 1492 1491 1490 1490 1487 1485 1480 1477 1471 1467 1466 1466 1468 1471 1472 1456 1449 1430 1427 1426 1431 1426 1423 1421 1406 1410
1510 1508 1508 1507 1506 1506 1506 1507 1506 1508 1508 1507 1507 1501 1496 1492 1488 1491 1494 1492 1492 1487 1487 1486 1488 1483 1482 1480 1477 1470 1471 1468 1464 1458 1456 1462 1448 1443 1433 1420 1421 1421 1420 1419 1416 1408 1408
1504 1503 1501 1501 1501 1501 1501 1500 1502 1503 1504 1501 1500 1499 1499 1491 1487 1487 1486 1486 1481 1482 1481 1479 1480 1480 1481 1476 1475 1472 1468 1463 1460 1456 1453 1454 1450 1437 1420 1414 1417 1421 1397 1409 1405 1401 1403
1497 1496 1496 1495 1495 1495 1494 1495 1494 1495 1496 1496 1496 1496 1495 1487 1485 1482 1481 1479 1477 1477 1478 1478 1479 1479 1475 1473 1469 1462 1456 1451 1452 1445 1446 1439 1439 1436 1417 1422 1410 1385 1399 1398 1395 1388 1391
1491 1490 1489 1488 1488 1488 1488 1488 1488 1488 1489 1490 1491 1492 1491 1481 1483 1481 1479 1476 1475 1476 1477 1474 1473 1473 1471 1471 1466 1452 1436 1443 1434 1438 1435 1436 1433 1423 1420 1407 1390 1388 1406 1405 1396 1393 1406
1483 1483 1482 1481 1480 1479 1480 1480 1481 1481 1482 1483 1483 1487 1485 1479 1473 1475 1475 1473 1472 1470 1471 1470 1469 1469 1470 1469 1461 1448 1434 1428 1422 1425 1437 1438 1435 1432 1417 1409 1392 1410 1415 1415 1407 1397 1415
1476 1474 1474 1473 1473 1473 1472 1474 1474 1474 1474 1476 1476 1478 1480 1473 1470 1471 1472 1472 1471 1471 1470 1469 1469 1468 1468 1461 1453 1444 1432 1438 1429 1426 1427 1430 1431 1429 1422 1412 1405 1427 1422 1419 1403 1417 1421
1467 1467 1465 1466 1465 1466 1465 1464 1467 1468 1469 1469 1468 1470 1474 1468 1465 1463 1466 1468 1469 1469 1468 1468 1468 1464 1464 1460 1453 1440 1436 1433 1435 1431 1432 1429 1425 1421 1419 1413 1407 1434 1426 1426 1439 1431 1426
1457 1460 1458 1458 1459 1457 1459 1459 1459 1461 1462 1463 1462 1463 1466 1465 1464 1460 1460 1463 1464 1465 1466 1464 1463 1462 1462 1457 1453 1449 1441 1436 1429 1425 1436 1431 1439 1435 1434 1435 1441 1440 1438 1438 1435 1432 1431
Wind_Speed
9 10 10 11 11 12 12 12 12 13 13 13 14 15 16 17 17 18 18 19 18 17 14 14 14 12 9 5 8 12 10 8 6 5 6 6 9 7 9 4 5 8 4 2 3 6 9
12 13 13 13 12 12 12 12 13 13 13 13 13 14 15 15 16 16 17 18 19 19 17 14 14 13 8 8 9 10 10 8 7 6 7 7 6 6 3 3 6 2 4 4 6 8 9
12 13 14 15 15 15 15 15 14 14 14 15 16 16 16 15 15 16 15 15 16 16 18 18 14 13 12 14 13 10 9 8 7 8 5 9 7 5 4 4 4 8 4 5 9 10 6
9 10 11 12 14 15 15 15 15 14 15 16 16 16 17 18 18 18 17 17 16 15 15 17 15 12 9 13 14 10 9 7 7 7 9 8 7 4 4 5 5 6 4 6 13 13 6
10 11 12 12 12 12 13 14 15 16 16 16 16 16 17 18 18 19 19 19 17 16 15 13 12 6 8 9 7 10 7 4 6 6 6 7 7 4 5 7 7 9 10 14 7 17 7
11 12 13 15 17 15 13 12 14 15 16 16 17 17 17 18 19 19 17 17 14 11 8 7 8 5 8 5 7 6 7 6 3 4 3 5 6 8 9 12 12 13 16 13 14 14 17
14 15 16 15 15 15 14 15 16 17 16 16 17 18 18 19 19 18 17 11 7 4 4 9 11 14 9 11 8 7 7 4 4 7 6 10 9 14 19 19 20 15 17 17 12 9 13
15 16 17 18 19 19 19 18 20 17 17 17 19 19 19 19 19 13 13 5 5 7 13 16 20 17 15 8 5 8 9 7 7 12 12 5 16 18 13 9 18 16 18 19 11 6 12
18 18 19 20 19 20 21 22 20 19 18 19 21 20 19 19 15 14 11 10 9 10 7 6 6 4 5 8 8 8 11 6 9 14 16 18 12 5 10 11 14 19 20 17 18 6 13
22 22 23 22 22 22 23 23 23 21 19 19 21 22 21 18 7 15 8 14 10 8 5 4 2 2 2 3 5 7 10 7 6 7 15 15 20 13 10 14 16 20 17 18 17 6 10
25 25 26 25 24 24 23 22 21 19 17 18 20 20 19 18 16 11 13 12 9 4 6 3 4 3 3 5 1 5 10 6 12 9 5 8 6 9 15 19 14 15 4 9 13 15 17
25 25 24 24 25 25 24 23 22 21 18 16 18 16 17 16 16 12 15 13 7 4 8 4 4 5 4 7 4 3 5 7 2 8 15 19 3 6 14 1 7 4 4 3 5 9 11
23 23 23 23 23 23 23 24 24 23 21 19 19 20 16 15 11 14 14 10 5 7 1 3 1 2 4 4 5 8 10 10 8 5 9 10 21 7 8 7 6 12 10 4 6 6 10
18 18 19 20 20 20 20 21 21 21 21 22 18 20 18 17 14 11 8 2 8 7 11 5 4 3 6 3 8 8 6 10 19 16 8 6 7 21 16 18 10 20 17 7 8 11 13
20 18 17 17 16 18 18 18 19 18 19 20 20 18 16 16 12 9 4 5 6 4 5 7 12 12 17 6 4 4 10 17 9 19 12 10 11 6 6 7 9 7 12 16 17 19 9
20 19 19 18 17 18 19 18 19 18 18 18 17 12 14 16 14 8 4 9 11 5 5 5 10 10 18 18 8 4 8 3 6 13 20 8 16 9 6 2 9 9 4 7 7 7 16
22 21 21 19 18 18 18 18 19 18 17 16 8 7 7 11 9 6 6 8 12 13 11 5 13 16 17 17 15 16 11 13 6 6 8 10 12 5 3 11 16 8 9 9 5 9 8
20 22 22 22 22 19 17 16 17 15 15 13 5 6 4 10 4 2 4 4 1 5 10 9 8 10 16 17 18 18 19 18 4 2 7 5 5 13 19 6 4 14 16 22 9 13 9
21 19 19 19 20 19 17 16 16 13 11 8 5 10 7 10 6 7 10 10 8 8 10 4 3 4 3 5 6 13 12 9 13 6 7 1 7 13 18 9 2 8 15 16 21 12 21
20 22 22 20 18 18 18 16 15 13 11 9 5 3 3 11 5 10 15 16 7 4 5 7 6 10 8 5 11 8 13 9 0 5 4 4 14 19 17 10 3 5 11 19 19 13 27
21 22 23 24 22 21 20 18 17 15 11 10 5 6 9 4 6 11 9 1 3 5 9 3 4 14 9 6 14 19 16 16 14 21 7 4 13 19 28 29 24 14 13 12 22 30 19
23 24 24 25 25 21 19 19 17 14 14 15 7 6 9 16 13 9 7 5 11 12 9 5 9 13 13 9 13 21 22 18 13 5 7 6 9 14 25 27 22 22 23 22 18 21 21
25 26 24 23 25 25 21 18 18 16 15 13 13 16 14 12 11 6 4 12 12 7 8 19 16 11 13 16 17 22 23 25 18 8 8 7 5 5 15 14 17 15 31 24 25 18 13
24 25 25 24 24 25 23 20 18 19 18 23 20 15 9 9 11 14 18 20 18 16 15 13 16 6 9 14 22 24 29 29 24 25 22 10 11 7 11 3 8 6 3 1 12 22 20
25 25 26 24 24 24 24 21 20 20 20 21 26 21 10 6 12 12 16 16 17 14 14 19 17 16 14 10 4 7 6 4 8 13 12 15 10 4 5 10 9 13 2 3 2 2 6
26 27 27 28 24 23 23 23 22 22 22 21 24 27 21 7 11 23 21 19 11 11 6 7 11 11 5 3 3 4 8 9 5 3 1 2 1 3 3 6 5 7 7 10 3 3 10
28 27 27 24 24 24 24 24 23 23 23 21 23 22 25 13 15 11 6 6 4 2 3 5 2 1 4 3 4 5 8 2 4 7 5 2 2 9 11 8 2 6 11 13 5 4 13
29 27 27 25 23 24 25 24 23 23 21 20 23 24 24 8 12 12 16 9 5 5 3 3 4 3 3 3 3 3 4 2 3 2 4 2 2 2 3 4 5 15 5 4 7 9 6
26 26 25 23 20 19 17 18 20 22 22 19 22 22 23 22 8 8 18 18 18 15 7 7 3 1 3 3 2 3 3 4 6 4 2 1 4 3 3 4 4 6 4 7 9 4 5
Wind_Direction
43 39 31 21 16 10 6 3 1 359 357 357 357 355 352 349 347 344 340 337 334 330 327 323 319 320 323 280 257 279 278 280 268 251 250 248 243 235 241 233 210 242 179 164 156 167 184
35 32 30 26 19 13 8 3 357 354 351 349 349 347 346 345 344 342 339 336 333 329 322 318 316 315 320 272 270 274 276 274 268 252 244 237 268 239 253 237 244 110 184 169 169 164 171
36 32 26 19 14 12 10 4 359 354 348 346 344 343 340 337 335 333 333 329 325 322 318 313 310 310 291 265 275 278 271 274 258 244 244 236 233 224 191 188 160 154 175 207 202 188 177
9 10 10 7 6 3 359 360 359 355 349 345 343 341 339 335 332 330 329 323 318 312 307 302 303 306 270 271 276 270 275 269 254 239 233 217 191 203 250 135 159 212 242 229 170 179 176
338 335 338 337 342 344 346 346 346 348 347 345 341 340 337 333 331 329 329 321 317 305 295 289 292 280 269 290 278 269 259 262 243 231 220 201 170 220 169 219 223 210 251 221 198 198 158
318 318 319 322 327 329 328 331 333 333 334 337 339 340 337 332 330 328 330 324 317 306 294 287 259 266 240 239 264 257 249 234 252 216 188 197 220 220 223 219 232 239 228 256 232 195 208
310 313 316 315 313 314 316 318 325 323 325 328 330 335 339 337 334 333 341 345 338 303 291 234 276 258 279 258 249 229 224 225 225 225 227 205 230 223 229 232 256 286 280 247 249 152 204
299 303 308 310 309 309 309 307 311 312 315 321 324 327 332 335 338 340 350 15 7 306 301 267 260 246 246 244 269 231 214 185 207 238 222 214 238 249 274 292 243 253 260 257 255 166 218
300 302 303 303 304 305 305 306 307 307 311 316 318 321 329 336 341 347 355 2 341 336 266 273 243 233 216 226 244 242 198 202 229 249 237 247 258 356 237 244 237 242 247 254 253 175 238
299 301 302 303 304 305 306 308 309 311 312 315 320 320 327 337 343 344 339 338 335 336 277 200 168 218 178 187 222 206 202 220 204 260 256 261 267 248 238 240 230 252 243 253 266 225 254
296 296 297 299 303 305 306 309 309 307 303 312 316 318 326 338 333 342 330 327 320 334 298 84 154 194 203 216 72 191 201 197 243 221 186 236 245 235 245 247 234 260 308 248 243 247 262
295 293 294 297 297 299 302 304 307 309 302 304 302 304 315 322 327 331 333 323 308 241 242 207 165 169 201 206 214 144 196 203 260 259 237 248 267 263 238 340 244 108 161 182 235 251 248
298 299 300 298 299 300 299 299 298 299 302 295 290 295 298 306 306 314 327 328 272 237 221 170 326 209 256 218 216 206 195 200 202 203 233 236 232 211 205 205 196 206 191 230 230 211 252
321 315 308 307 305 304 300 298 298 299 297 294 297 288 282 282 290 302 342 324 246 295 280 57 340 273 253 290 232 211 240 247 223 235 276 257 255 197 200 218 195 202 207 209 246 235 265
310 316 316 310 308 312 313 310 304 300 297 294 291 287 284 281 280 266 171 213 250 252 330 340 314 277 281 219 262 241 236 250 261 200 215 247 244 140 218 187 212 172 223 245 280 275 267
293 302 307 310 312 311 308 309 311 309 300 295 294 288 269 268 264 219 206 234 238 224 300 265 280 283 289 299 283 261 263 310 253 242 226 270 281 176 153 206 239 233 289 202 214 252 252
281 283 291 295 300 306 306 308 303 306 310 310 304 280 247 235 202 183 234 246 272 258 255 269 262 265 277 282 274 280 276 307 296 348 257 251 241 209 153 200 201 195 217 224 282 228 257
291 283 282 285 289 295 299 308 313 303 311 322 278 259 273 205 193 211 228 230 279 274 273 240 240 248 264 266 279 275 266 262 26 313 287 258 280 262 247 193 260 250 235 217 226 228 239
290 287 286 286 285 285 285 295 305 290 303 297 259 265 230 203 246 225 229 251 241 262 259 277 277 248 307 276 276 249 277 303 312 266 262 279 241 265 245 202 183 231 224 236 238 256 255
292 289 284 284 288 286 284 288 296 293 285 282 278 242 202 212 246 260 274 276 274 255 245 237 235 259 247 229 243 264 275 285 341 287 318 280 250 255 251 251 355 228 229 224 223 224 246
286 291 290 282 281 281 280 279 283 292 263 263 241 257 256 202 224 231 250 238 235 256 224 261 254 251 255 265 288 276 275 276 268 258 234 232 254 249 260 265 269 260 268 272 224 239 242
295 288 290 286 274 277 275 268 270 275 258 255 260 256 260 270 269 225 213 197 245 243 235 236 232 272 283 270 267 289 293 284 272 266 247 185 260 255 256 256 255 253 253 251 256 256 252
290 294 283 285 281 272 275 268 256 259 254 249 257 262 263 266 277 258 208 236 252 254 243 248 275 292 276 273 279 278 279 277 262 261 210 191 233 247 257 264 254 257 238 237 240 238 240
289 290 292 281 283 272 266 267 258 251 256 248 252 268 267 270 258 261 255 259 262 269 255 263 288 242 268 278 295 288 260 258 253 250 234 237 228 244 271 282 233 261 63 255 239 248 231
287 286 291 284 277 277 265 266 257 251 254 258 253 252 258 260 264 278 275 272 283 270 267 269 265 260 274 311 281 289 274 254 237 234 229 225 245 245 247 242 285 289 40 331 252 60 24
282 284 286 285 273 270 263 259 257 253 250 255 255 246 252 267 237 255 267 269 271 267 265 238 270 270 274 248 252 272 289 308 290 258 102 316 300 290 241 266 254 39 10 344 282 240 10
278 282 286 284 282 271 263 261 258 251 246 251 259 253 248 259 258 233 231 245 194 204 260 259 256 278 186 242 251 253 273 328 278 313 351 354 235 235 247 261 283 2 349 330 248 11 347
272 279 285 278 283 277 267 257 255 244 247 251 264 255 241 265 259 223 234 228 220 202 256 282 278 187 190 242 256 277 267 293 287 241 280 262 274 237 230 249 264 5 343 12 317 334 354
265 275 282 271 278 276 272 256 245 247 255 253 255 254 245 245 258 249 236 238 241 245 251 217 287 157 267 283 252 285 274 273 286 272 132 255 359 317 11 3 7 10 45 341 331 343 85